AAL4364 KBNA-KJFK

Flight info

Callsign AAL4364
Flight time 1h 54m
Altitude 37000
Route CHADM4 MUNNY TONIO Q34 MAULS QUART HURTS SAWED Q108 SIE CAMRN5
Aircraft B738/M-SDE2E3FGHIRWXY/LB1

Departure

Time 2026-05-04 23:35
Airport Nashville International Airport (KBNA)

Arrival

Time 2026-05-05 01:30
Airport John F. Kennedy International Airport (KJFK)
Time Latitude Longitude Altitude Speed Heading
2026-05-04 22:51 36.12865 -86.67111 574 ft 0 kts 50°
2026-05-04 23:23 36.12861 -86.67117 579 ft 4 kts 49°
2026-05-04 23:23 36.12842 -86.67141 575 ft 4 kts 37°
2026-05-04 23:24 36.12819 -86.67156 574 ft 4 kts
2026-05-04 23:24 36.12800 -86.67152 574 ft 2 kts 314°
2026-05-04 23:24 36.12799 -86.67151 574 ft 1 kts 313°
2026-05-04 23:29 36.12805 -86.67158 574 ft 4 kts 313°
2026-05-04 23:29 36.12843 -86.67208 576 ft 12 kts 313°
2026-05-04 23:30 36.12850 -86.67280 577 ft 8 kts 219°
2026-05-04 23:30 36.12804 -86.67329 575 ft 9 kts 223°
2026-05-04 23:30 36.12758 -86.67385 575 ft 9 kts 225°
2026-05-04 23:30 36.12710 -86.67434 578 ft 9 kts 213°
2026-05-04 23:31 36.12653 -86.67474 576 ft 10 kts 208°
2026-05-04 23:31 36.12592 -86.67515 575 ft 11 kts 211°
2026-05-04 23:31 36.12530 -86.67591 577 ft 15 kts 224°
2026-05-04 23:31 36.12440 -86.67673 574 ft 16 kts 201°
2026-05-04 23:32 36.12354 -86.67714 577 ft 7 kts 220°
2026-05-04 23:32 36.12361 -86.67776 576 ft 10 kts 288°
2026-05-04 23:32 36.12376 -86.67829 575 ft 0 kts 289°
2026-05-04 23:32 36.12380 -86.67844 580 ft 5 kts 289°
2026-05-04 23:33 36.12382 -86.67850 579 ft 0 kts 289°
2026-05-04 23:33 36.12387 -86.67871 577 ft 7 kts 289°
2026-05-04 23:34 36.12402 -86.67928 576 ft 4 kts 284°
2026-05-04 23:34 36.12403 -86.67961 574 ft 4 kts 247°
2026-05-04 23:34 36.12379 -86.67978 578 ft 4 kts 201°
2026-05-04 23:34 36.12368 -86.67984 574 ft 1 kts 201°
2026-05-04 23:35 36.12258 -86.68028 573 ft 49 kts 198°
2026-05-04 23:35 36.11694 -86.68253 575 ft 119 kts 198°
2026-05-04 23:35 36.10732 -86.68625 805 ft 157 kts 199°
2026-05-04 23:35 36.09684 -86.68999 1593 ft 156 kts 197°
2026-05-04 23:36 36.08616 -86.69405 2295 ft 169 kts 198°
2026-05-04 23:36 36.07392 -86.69567 2907 ft 191 kts 175°
2026-05-04 23:36 36.06073 -86.68840 3148 ft 225 kts 152°
2026-05-04 23:36 36.04680 -86.67837 3638 ft 236 kts 155°
2026-05-04 23:37 36.03204 -86.66907 4423 ft 238 kts 158°
2026-05-04 23:37 36.01644 -86.65993 4958 ft 258 kts 158°
2026-05-04 23:37 35.99988 -86.65033 5731 ft 267 kts 154°
2026-05-04 23:37 35.98567 -86.63481 6505 ft 281 kts 128°
2026-05-04 23:38 35.97824 -86.61225 6894 ft 291 kts 102°
2026-05-04 23:38 35.97670 -86.58722 6989 ft 295 kts 92°
2026-05-04 23:38 35.97652 -86.56186 7011 ft 296 kts 92°
2026-05-04 23:38 35.97628 -86.53652 7014 ft 294 kts 92°
2026-05-04 23:39 35.97752 -86.51119 7244 ft 301 kts 73°
2026-05-04 23:39 35.98526 -86.48714 8170 ft 300 kts 66°
2026-05-04 23:39 35.99375 -86.46349 9061 ft 303 kts 65°
2026-05-04 23:39 36.00238 -86.43955 9919 ft 307 kts 64°
2026-05-04 23:40 36.01102 -86.41542 10491 ft 320 kts 65°
2026-05-04 23:40 36.02036 -86.38915 10681 ft 347 kts 65°
2026-05-04 23:40 36.03026 -86.36098 10919 ft 369 kts 65°
2026-05-04 23:40 36.04056 -86.33141 11538 ft 376 kts 65°
2026-05-04 23:41 36.05088 -86.30154 12296 ft 380 kts 65°
2026-05-04 23:41 36.06128 -86.27133 13052 ft 383 kts 65°
2026-05-04 23:41 36.07174 -86.24086 13788 ft 388 kts 65°
2026-05-04 23:41 36.08232 -86.20999 14449 ft 392 kts 65°
2026-05-04 23:42 36.09300 -86.17880 15144 ft 395 kts 65°
2026-05-04 23:42 36.10375 -86.14738 15810 ft 399 kts 65°
2026-05-04 23:42 36.11459 -86.11563 16442 ft 403 kts 65°
2026-05-04 23:42 36.12557 -86.08348 17086 ft 407 kts 65°
2026-05-04 23:43 36.13664 -86.05102 17756 ft 411 kts 65°
2026-05-04 23:43 36.14765 -86.01869 18362 ft 415 kts 64°
2026-05-04 23:43 36.15891 -85.98560 18895 ft 419 kts 65°
2026-05-04 23:43 36.17024 -85.95227 19446 ft 423 kts 65°
2026-05-04 23:44 36.18170 -85.91851 19976 ft 426 kts 65°
2026-05-04 23:44 36.19323 -85.88451 20539 ft 429 kts 65°
2026-05-04 23:44 36.20482 -85.85027 21068 ft 433 kts 65°
2026-05-04 23:44 36.21653 -85.81568 21573 ft 437 kts 65°
2026-05-04 23:45 36.22830 -85.78083 22069 ft 441 kts 65°
2026-05-04 23:45 36.24015 -85.74572 22610 ft 443 kts 65°
2026-05-04 23:45 36.25210 -85.71027 23085 ft 447 kts 65°
2026-05-04 23:45 36.26411 -85.67461 23553 ft 451 kts 65°
2026-05-04 23:46 36.27610 -85.63896 23942 ft 454 kts 65°
2026-05-04 23:46 36.28825 -85.60278 24343 ft 457 kts 65°
2026-05-04 23:46 36.30051 -85.56625 24732 ft 460 kts 65°
2026-05-04 23:46 36.31282 -85.52949 25111 ft 463 kts 65°
2026-05-04 23:47 36.32522 -85.49245 25481 ft 466 kts 65°
2026-05-04 23:47 36.33767 -85.45523 25845 ft 469 kts 65°
2026-05-04 23:47 36.35017 -85.41776 26209 ft 471 kts 65°
2026-05-04 23:47 36.36276 -85.38002 26546 ft 474 kts 65°
2026-05-04 23:48 36.37538 -85.34213 26896 ft 477 kts 65°
2026-05-04 23:48 36.38805 -85.30402 27245 ft 480 kts 65°
2026-05-04 23:48 36.39650 -85.27860 27463 ft 482 kts 65°
2026-05-04 23:48 36.40929 -85.24004 27788 ft 484 kts 65°
2026-05-04 23:49 36.42214 -85.20126 28103 ft 487 kts 65°
2026-05-04 23:49 36.43506 -85.16222 28422 ft 489 kts 65°
2026-05-04 23:49 36.44785 -85.12353 28726 ft 492 kts 65°
2026-05-04 23:49 36.46102 -85.08363 29038 ft 494 kts 65°
2026-05-04 23:50 36.47410 -85.04394 29324 ft 497 kts 65°
2026-05-04 23:50 36.48722 -85.00411 29603 ft 499 kts 65°
2026-05-04 23:50 36.50039 -84.96407 29901 ft 501 kts 65°
2026-05-04 23:50 36.51443 -84.92448 30242 ft 500 kts 62°
2026-05-04 23:51 36.52961 -84.88561 30638 ft 497 kts 60°
2026-05-04 23:51 36.54522 -84.84722 31023 ft 496 kts 60°
2026-05-04 23:51 36.56090 -84.80912 31320 ft 496 kts 60°
2026-05-04 23:51 36.57663 -84.77077 31610 ft 497 kts 60°
2026-05-04 23:52 36.59222 -84.73247 31946 ft 496 kts 60°
2026-05-04 23:52 36.60751 -84.69453 32289 ft 495 kts 60°
2026-05-04 23:52 36.62286 -84.65616 32615 ft 495 kts 61°
2026-05-04 23:52 36.63814 -84.61780 32902 ft 495 kts 61°
2026-05-04 23:53 36.65338 -84.57942 33201 ft 495 kts 61°
2026-05-04 23:53 36.66866 -84.54088 33506 ft 495 kts 61°
2026-05-04 23:53 36.68390 -84.50240 33824 ft 494 kts 61°
2026-05-04 23:53 36.69907 -84.46407 34099 ft 493 kts 61°
2026-05-04 23:54 36.71424 -84.42571 34337 ft 493 kts 61°
2026-05-04 23:54 36.72942 -84.38729 34587 ft 493 kts 61°
2026-05-04 23:54 36.74453 -84.34900 34845 ft 493 kts 61°
2026-05-04 23:54 36.75966 -84.31063 35115 ft 492 kts 60°
2026-05-04 23:55 36.77472 -84.27237 35353 ft 492 kts 60°
2026-05-04 23:55 36.78960 -84.23453 35576 ft 492 kts 60°
2026-05-04 23:55 36.81965 -84.15798 36068 ft 490 kts 60°
2026-05-04 23:56 36.83467 -84.11965 36342 ft 489 kts 60°
2026-05-04 23:56 36.84961 -84.08147 36598 ft 488 kts 60°
2026-05-04 23:56 36.86450 -84.04336 36838 ft 487 kts 60°
2026-05-04 23:56 36.87941 -84.00517 36941 ft 489 kts 60°
2026-05-04 23:57 36.89437 -83.96683 36932 ft 491 kts 60°
2026-05-04 23:57 36.92417 -83.89026 36923 ft 488 kts 60°
2026-05-04 23:58 36.95355 -83.81454 36920 ft 485 kts 60°
2026-05-04 23:58 36.98288 -83.73882 36921 ft 483 kts 60°
2026-05-04 23:59 37.01206 -83.66331 36919 ft 482 kts 60°
2026-05-04 23:59 37.04118 -83.58779 36914 ft 482 kts 61°
2026-05-05 00:00 37.07032 -83.51203 36922 ft 483 kts 61°
2026-05-05 00:00 37.09949 -83.43600 36922 ft 485 kts 61°
2026-05-05 00:01 37.12850 -83.36017 36926 ft 486 kts 61°
2026-05-05 00:01 37.15772 -83.28364 36925 ft 487 kts 61°
2026-05-05 00:02 37.18701 -83.20671 36930 ft 489 kts 61°
2026-05-05 00:02 37.21625 -83.12969 36927 ft 489 kts 61°
2026-05-05 00:03 37.24549 -83.05256 36922 ft 490 kts 61°
2026-05-05 00:03 37.27152 -82.97390 36919 ft 492 kts 67°
2026-05-05 00:04 37.29402 -82.89278 36923 ft 491 kts 68°
2026-05-05 00:04 37.31631 -82.81167 36918 ft 491 kts 68°
2026-05-05 00:05 37.33900 -82.73074 36925 ft 490 kts 68°
2026-05-05 00:05 37.36182 -82.64995 36932 ft 489 kts 68°
2026-05-05 00:06 37.38457 -82.56923 36939 ft 489 kts 68°
2026-05-05 00:06 37.40718 -82.48867 36941 ft 488 kts 68°
2026-05-05 00:07 37.42956 -82.40860 36933 ft 488 kts 68°
2026-05-05 00:07 37.45205 -82.32795 36921 ft 488 kts 68°
2026-05-05 00:08 37.47449 -82.24720 36910 ft 488 kts 68°
2026-05-05 00:08 37.49687 -82.16644 36920 ft 488 kts 68°
2026-05-05 00:09 37.51922 -82.08571 36907 ft 488 kts 68°
2026-05-05 00:09 37.54157 -82.00488 36919 ft 488 kts 68°
2026-05-05 00:10 37.56371 -81.92463 36912 ft 488 kts 68°
2026-05-05 00:10 37.58594 -81.84374 36922 ft 487 kts 69°
2026-05-05 00:11 37.60804 -81.76298 36920 ft 487 kts 69°
2026-05-05 00:11 37.62996 -81.68225 36922 ft 486 kts 69°
2026-05-05 00:12 37.65183 -81.60142 36932 ft 486 kts 69°
2026-05-05 00:12 37.67363 -81.52069 36932 ft 486 kts 69°
2026-05-05 00:13 37.69522 -81.44048 36951 ft 485 kts 69°
2026-05-05 00:13 37.71685 -81.35985 36961 ft 485 kts 69°
2026-05-05 00:14 37.73843 -81.27915 36976 ft 484 kts 69°
2026-05-05 00:14 37.75996 -81.19843 36978 ft 484 kts 69°
2026-05-05 00:15 37.78006 -81.11722 36977 ft 485 kts 77°
2026-05-05 00:15 37.78754 -81.03233 36979 ft 486 kts 85°
2026-05-05 00:16 37.79228 -80.94696 36972 ft 486 kts 85°
2026-05-05 00:16 37.79745 -80.86168 36964 ft 486 kts 84°
2026-05-05 00:17 37.80300 -80.77645 36957 ft 486 kts 84°
2026-05-05 00:17 37.80858 -80.69116 36965 ft 486 kts 84°
2026-05-05 00:18 37.81405 -80.60588 36974 ft 486 kts 84°
2026-05-05 00:18 37.81942 -80.52119 36980 ft 486 kts 84°
2026-05-05 00:19 37.82477 -80.43597 36982 ft 486 kts 84°
2026-05-05 00:19 37.83013 -80.35074 36982 ft 486 kts 84°
2026-05-05 00:20 37.83546 -80.26538 36978 ft 486 kts 84°
2026-05-05 00:20 37.84071 -80.18016 36976 ft 486 kts 84°
2026-05-05 00:21 37.84590 -80.09497 36993 ft 485 kts 85°
2026-05-05 00:21 37.85101 -80.00989 37024 ft 485 kts 85°
2026-05-05 00:22 37.85604 -79.92516 37032 ft 485 kts 85°
2026-05-05 00:22 37.86104 -79.83997 37034 ft 485 kts 85°
2026-05-05 00:23 37.86599 -79.75475 37033 ft 485 kts 85°
2026-05-05 00:23 37.86983 -79.66941 37026 ft 485 kts 87°
2026-05-05 00:23 37.87106 -79.62671 36922 ft 485 kts 87°
2026-05-05 00:24 37.87224 -79.58398 36919 ft 485 kts 87°
2026-05-05 00:24 37.87476 -79.49866 36914 ft 484 kts 87°
2026-05-05 00:25 37.87743 -79.41401 36917 ft 484 kts 87°
2026-05-05 00:25 37.87799 -79.32890 36910 ft 484 kts 95°
2026-05-05 00:26 37.86359 -79.24589 36937 ft 483 kts 106°
2026-05-05 00:26 37.84521 -79.16408 36934 ft 483 kts 107°
2026-05-05 00:27 37.82704 -79.08222 36948 ft 483 kts 106°
2026-05-05 00:27 37.80922 -79.00016 36959 ft 482 kts 106°
2026-05-05 00:28 37.79154 -78.91823 36952 ft 483 kts 106°
2026-05-05 00:28 37.77390 -78.83679 36945 ft 483 kts 106°
2026-05-05 00:29 37.75610 -78.75497 36951 ft 483 kts 106°
2026-05-05 00:29 37.73818 -78.67297 36952 ft 483 kts 106°
2026-05-05 00:30 37.72022 -78.59109 36948 ft 484 kts 106°
2026-05-05 00:30 37.70219 -78.50918 36946 ft 484 kts 106°
2026-05-05 00:31 37.68407 -78.42719 36948 ft 484 kts 106°
2026-05-05 00:31 37.66600 -78.34567 36951 ft 484 kts 106°
2026-05-05 00:32 37.64777 -78.26373 36951 ft 485 kts 106°
2026-05-05 00:32 37.62949 -78.18187 36950 ft 485 kts 106°
2026-05-05 00:33 37.61117 -78.10012 36954 ft 485 kts 106°
2026-05-05 00:33 37.59275 -78.01822 36955 ft 485 kts 106°
2026-05-05 00:34 37.57428 -77.93641 36967 ft 486 kts 106°
2026-05-05 00:34 37.55573 -77.85449 36973 ft 486 kts 106°
2026-05-05 00:35 37.53707 -77.77235 36979 ft 487 kts 107°
2026-05-05 00:35 37.52265 -77.70387 36976 ft 488 kts 99°
2026-05-05 00:36 37.51521 -77.61892 36980 ft 488 kts 95°
2026-05-05 00:36 37.50929 -77.53401 36982 ft 489 kts 95°
2026-05-05 00:37 37.50285 -77.44876 36973 ft 489 kts 95°
2026-05-05 00:37 37.49599 -77.36367 36971 ft 489 kts 96°
2026-05-05 00:38 37.48898 -77.27833 36969 ft 489 kts 96°
2026-05-05 00:38 37.48195 -77.19330 36971 ft 488 kts 96°
2026-05-05 00:39 37.47490 -77.10839 36972 ft 487 kts 96°
2026-05-05 00:39 37.46780 -77.02357 36969 ft 487 kts 96°
2026-05-05 00:40 37.46239 -76.93863 36962 ft 486 kts 87°
2026-05-05 00:40 37.46777 -76.85410 36968 ft 485 kts 83°
2026-05-05 00:41 37.47442 -76.77016 36974 ft 485 kts 84°
2026-05-05 00:41 37.48064 -76.68554 36972 ft 485 kts 84°
2026-05-05 00:42 37.48642 -76.60093 36973 ft 485 kts 84°
2026-05-05 00:42 37.49205 -76.51621 36966 ft 486 kts 84°
2026-05-05 00:43 37.49764 -76.43136 36970 ft 486 kts 84°
2026-05-05 00:43 37.50321 -76.34634 36966 ft 487 kts 85°
2026-05-05 00:44 37.50872 -76.26122 36975 ft 488 kts 85°
2026-05-05 00:44 37.51416 -76.17640 36978 ft 490 kts 85°
2026-05-05 00:45 37.51957 -76.09088 36984 ft 491 kts 85°
2026-05-05 00:45 37.52495 -76.00506 36985 ft 491 kts 85°
2026-05-05 00:46 37.53108 -75.91932 36974 ft 491 kts 76°
2026-05-05 00:46 37.54244 -75.87917 37007 ft 485 kts 59°
2026-05-05 00:46 37.56137 -75.84443 36987 ft 480 kts 45°
2026-05-05 00:46 37.58611 -75.81679 36990 ft 472 kts 29°
2026-05-05 00:47 37.61402 -75.79525 37005 ft 469 kts 26°
2026-05-05 00:47 37.67068 -75.75439 36993 ft 470 kts 26°
2026-05-05 00:48 37.72724 -75.71275 36986 ft 470 kts 27°
2026-05-05 00:48 37.78335 -75.67040 36986 ft 470 kts 27°
2026-05-05 00:49 37.83946 -75.62793 36988 ft 470 kts 28°
2026-05-05 00:49 37.89419 -75.58218 36995 ft 471 kts 31°
2026-05-05 00:50 37.94757 -75.53494 36993 ft 470 kts 31°
2026-05-05 00:50 38.00130 -75.48802 36993 ft 469 kts 31°
2026-05-05 00:51 38.05535 -75.44102 36995 ft 469 kts 31°
2026-05-05 00:51 38.10959 -75.39620 36992 ft 467 kts 28°
2026-05-05 00:52 38.16442 -75.35202 36977 ft 467 kts 29°
2026-05-05 00:52 38.21912 -75.30734 36995 ft 466 kts 28°
2026-05-05 00:53 38.27781 -75.27495 37004 ft 457 kts 10°
2026-05-05 00:53 38.34005 -75.26154 37000 ft 453 kts
2026-05-05 00:54 38.40247 -75.24967 36994 ft 454 kts
2026-05-05 00:54 38.46489 -75.23683 36995 ft 454 kts
2026-05-05 00:55 38.52727 -75.22364 36966 ft 454 kts
2026-05-05 00:55 38.58971 -75.21026 36965 ft 454 kts
2026-05-05 00:56 38.65169 -75.19702 36965 ft 454 kts
2026-05-05 00:56 38.71232 -75.17298 36972 ft 462 kts 23°
2026-05-05 00:57 38.76605 -75.12700 36978 ft 466 kts 34°
2026-05-05 00:57 38.81715 -75.07561 36976 ft 467 kts 35°
2026-05-05 00:58 38.86846 -75.02437 36975 ft 467 kts 34°
2026-05-05 00:58 38.89426 -74.99892 36548 ft 473 kts 34°
2026-05-05 00:58 38.92036 -74.97326 36008 ft 470 kts 34°
2026-05-05 00:58 38.94635 -74.94771 35358 ft 469 kts 34°
2026-05-05 00:59 38.97231 -74.92218 34701 ft 469 kts 34°
2026-05-05 00:59 38.99823 -74.89666 34028 ft 469 kts 34°
2026-05-05 00:59 39.02416 -74.87107 33226 ft 470 kts 35°
2026-05-05 00:59 39.04974 -74.84580 32491 ft 469 kts 35°
2026-05-05 01:00 39.07557 -74.82028 31736 ft 468 kts 35°
2026-05-05 01:00 39.10135 -74.79473 31004 ft 467 kts 36°
2026-05-05 01:00 39.12634 -74.76866 30674 ft 457 kts 37°
2026-05-05 01:00 39.15060 -74.74240 30129 ft 454 kts 38°
2026-05-05 01:01 39.17460 -74.71606 29532 ft 449 kts 38°
2026-05-05 01:01 39.19818 -74.69018 28985 ft 443 kts 38°
2026-05-05 01:01 39.22152 -74.66466 28431 ft 437 kts 38°
2026-05-05 01:01 39.24465 -74.63948 27893 ft 432 kts 37°
2026-05-05 01:02 39.26754 -74.61462 27354 ft 428 kts 37°
2026-05-05 01:02 39.29028 -74.58994 26816 ft 424 kts 37°
2026-05-05 01:02 39.31275 -74.56556 26292 ft 420 kts 37°
2026-05-05 01:02 39.33502 -74.54134 25783 ft 416 kts 37°
2026-05-05 01:03 39.35707 -74.51736 25274 ft 413 kts 37°
2026-05-05 01:03 39.37900 -74.49347 24765 ft 410 kts 37°
2026-05-05 01:03 39.40075 -74.46977 24257 ft 408 kts 37°
2026-05-05 01:03 39.42211 -74.44648 23755 ft 405 kts 37°
2026-05-05 01:04 39.44391 -74.42271 23162 ft 404 kts 37°
2026-05-05 01:04 39.48629 -74.37643 22091 ft 398 kts 37°
2026-05-05 01:04 39.50744 -74.35329 21576 ft 395 kts 37°
2026-05-05 01:05 39.52835 -74.33038 21072 ft 392 kts 36°
2026-05-05 01:05 39.54897 -74.30779 20586 ft 390 kts 36°
2026-05-05 01:05 39.56973 -74.28503 20085 ft 387 kts 36°
2026-05-05 01:05 39.59030 -74.26247 19585 ft 386 kts 36°
2026-05-05 01:06 39.61079 -74.23997 19060 ft 385 kts 36°
2026-05-05 01:06 39.63126 -74.21748 18559 ft 384 kts 36°
2026-05-05 01:06 39.65167 -74.19504 18032 ft 383 kts 36°
2026-05-05 01:06 39.67197 -74.17270 17500 ft 382 kts 36°
2026-05-05 01:07 39.69210 -74.15052 16980 ft 379 kts 36°
2026-05-05 01:07 39.71193 -74.12867 16490 ft 377 kts 36°
2026-05-05 01:07 39.73189 -74.10665 16001 ft 375 kts 37°
2026-05-05 01:07 39.75172 -74.08474 15527 ft 373 kts 37°
2026-05-05 01:08 39.77148 -74.06290 15055 ft 371 kts 37°
2026-05-05 01:08 39.79109 -74.04120 14572 ft 370 kts 37°
2026-05-05 01:08 39.81061 -74.01960 14116 ft 367 kts 37°
2026-05-05 01:08 39.83008 -73.99804 13633 ft 366 kts 37°
2026-05-05 01:09 39.85004 -73.97783 13128 ft 361 kts 29°
2026-05-05 01:09 39.87162 -73.96160 12662 ft 356 kts 24°
2026-05-05 01:09 39.89357 -73.94690 12201 ft 353 kts 23°
2026-05-05 01:09 39.91538 -73.93242 11736 ft 350 kts 24°
2026-05-05 01:10 39.93662 -73.91798 11577 ft 339 kts 24°
2026-05-05 01:10 39.95714 -73.90370 11420 ft 328 kts 24°
2026-05-05 01:10 39.97691 -73.88975 11279 ft 318 kts 24°
2026-05-05 01:10 39.99607 -73.87617 11153 ft 308 kts 24°
2026-05-05 01:11 40.01435 -73.86319 11017 ft 299 kts 24°
2026-05-05 01:11 40.03248 -73.85021 10827 ft 296 kts 26°
2026-05-05 01:11 40.05000 -73.83619 10552 ft 295 kts 28°
2026-05-05 01:11 40.06738 -73.82176 10182 ft 296 kts 28°
2026-05-05 01:12 40.08474 -73.80730 9849 ft 296 kts 28°
2026-05-05 01:12 40.10201 -73.79291 9537 ft 294 kts 28°
2026-05-05 01:12 40.11921 -73.77856 9193 ft 293 kts 28°
2026-05-05 01:12 40.13625 -73.76388 8839 ft 293 kts 30°
2026-05-05 01:13 40.15297 -73.74855 8504 ft 293 kts 31°
2026-05-05 01:13 40.16956 -73.73322 8242 ft 290 kts 31°
2026-05-05 01:13 40.18565 -73.71832 8122 ft 285 kts 31°
2026-05-05 01:13 40.20185 -73.70331 7998 ft 285 kts 31°
2026-05-05 01:14 40.21811 -73.68825 7871 ft 286 kts 31°
2026-05-05 01:14 40.23447 -73.67312 7746 ft 289 kts 31°
2026-05-05 01:14 40.25097 -73.65789 7622 ft 290 kts 31°
2026-05-05 01:14 40.26748 -73.64267 7502 ft 290 kts 31°
2026-05-05 01:15 40.28401 -73.62745 7381 ft 290 kts 31°
2026-05-05 01:15 40.30056 -73.61224 7256 ft 290 kts 31°
2026-05-05 01:15 40.31708 -73.59704 7132 ft 290 kts 31°
2026-05-05 01:15 40.33365 -73.58180 7008 ft 290 kts 31°
2026-05-05 01:16 40.34995 -73.56679 6894 ft 290 kts 31°
2026-05-05 01:16 40.36648 -73.55158 6767 ft 290 kts 31°
2026-05-05 01:16 40.38202 -73.53732 6646 ft 290 kts 31°
2026-05-05 01:16 40.39858 -73.52215 6533 ft 290 kts 31°
2026-05-05 01:17 40.41518 -73.50697 6412 ft 291 kts 31°
2026-05-05 01:17 40.43175 -73.49181 6284 ft 290 kts 31°
2026-05-05 01:17 40.44830 -73.47670 6154 ft 290 kts 31°
2026-05-05 01:17 40.46487 -73.46166 6025 ft 289 kts 31°
2026-05-05 01:18 40.48151 -73.44661 5906 ft 289 kts 31°
2026-05-05 01:18 40.49812 -73.43167 5770 ft 289 kts 31°
2026-05-05 01:18 40.51463 -73.41686 5637 ft 287 kts 31°
2026-05-05 01:18 40.53148 -73.40317 5492 ft 283 kts 17°
2026-05-05 01:19 40.55053 -73.39986 5277 ft 273 kts 351°
2026-05-05 01:19 40.56932 -73.40252 4939 ft 272 kts 348°
2026-05-05 01:19 40.58822 -73.40591 4527 ft 275 kts 347°
2026-05-05 01:19 40.60707 -73.40942 4252 ft 272 kts 347°
2026-05-05 01:20 40.62581 -73.41294 3913 ft 273 kts 347°
2026-05-05 01:20 40.63828 -73.41531 3722 ft 272 kts 347°
2026-05-05 01:20 40.66321 -73.42007 3356 ft 270 kts 347°
2026-05-05 01:20 40.68158 -73.42355 3091 ft 271 kts 347°
2026-05-05 01:21 40.70022 -73.42713 3026 ft 270 kts 347°
2026-05-05 01:21 40.71882 -73.43064 3004 ft 269 kts 347°
2026-05-05 01:21 40.73125 -73.43296 2998 ft 267 kts 347°
2026-05-05 01:21 40.75572 -73.43772 3003 ft 268 kts 343°
2026-05-05 01:22 40.76730 -73.44364 2997 ft 262 kts 322°
2026-05-05 01:22 40.78163 -73.45769 3006 ft 261 kts 317°
2026-05-05 01:22 40.79601 -73.47237 3014 ft 261 kts 317°
2026-05-05 01:22 40.81036 -73.48705 2998 ft 259 kts 317°
2026-05-05 01:23 40.82447 -73.50144 2986 ft 253 kts 315°
2026-05-05 01:23 40.83414 -73.51930 2989 ft 231 kts 280°
2026-05-05 01:23 40.83324 -73.53879 3006 ft 204 kts 247°
2026-05-05 01:23 40.82817 -73.55539 2987 ft 186 kts 243°
2026-05-05 01:24 40.82252 -73.57006 2976 ft 175 kts 242°
2026-05-05 01:24 40.81702 -73.58414 2987 ft 172 kts 241°
2026-05-05 01:24 40.81158 -73.59826 2995 ft 173 kts 242°
2026-05-05 01:24 40.80624 -73.61226 2996 ft 173 kts 242°
2026-05-05 01:25 40.80050 -73.62637 2983 ft 172 kts 231°
2026-05-05 01:25 40.79139 -73.63618 2940 ft 176 kts 217°
2026-05-05 01:25 40.78153 -73.64622 2733 ft 178 kts 219°
2026-05-05 01:25 40.77144 -73.65547 2553 ft 174 kts 214°
2026-05-05 01:26 40.76139 -73.66370 2382 ft 167 kts 213°
2026-05-05 01:26 40.75156 -73.67146 2245 ft 162 kts 213°
2026-05-05 01:26 40.74198 -73.67899 2122 ft 158 kts 212°
2026-05-05 01:26 40.73251 -73.68641 1991 ft 163 kts 212°
2026-05-05 01:27 40.72249 -73.69427 1791 ft 172 kts 212°
2026-05-05 01:27 40.71214 -73.70239 1553 ft 173 kts 211°
2026-05-05 01:27 40.70193 -73.71038 1311 ft 166 kts 211°
2026-05-05 01:27 40.69253 -73.71776 1104 ft 149 kts 211°
2026-05-05 01:28 40.68752 -73.72170 984 ft 143 kts 210°
2026-05-05 01:28 40.68081 -73.72695 871 ft 133 kts 211°
2026-05-05 01:28 40.67318 -73.73295 698 ft 123 kts 209°
2026-05-05 01:28 40.66615 -73.73853 666 ft 118 kts 210°
2026-05-05 01:29 40.65885 -73.74429 468 ft 124 kts 206°
2026-05-05 01:29 40.65121 -73.75018 256 ft 132 kts 209°
2026-05-05 01:29 40.64329 -73.75636 35 ft 131 kts 209°
2026-05-05 01:29 40.63630 -73.76179 20 ft 98 kts 210°
2026-05-05 01:30 40.63257 -73.76580 16 ft 44 kts 241°
2026-05-05 01:30 40.63262 -73.76771 15 ft 12 kts 301°
2026-05-05 01:30 40.63284 -73.76819 15 ft 0 kts 299°
2026-05-05 01:32 40.63306 -73.76870 15 ft 9 kts 299°
2026-05-05 01:32 40.63338 -73.76937 15 ft 9 kts 302°
2026-05-05 01:32 40.63368 -73.77003 16 ft 8 kts 300°
2026-05-05 01:32 40.63396 -73.77068 15 ft 8 kts 303°
2026-05-05 01:33 40.63432 -73.77144 15 ft 12 kts 301°
2026-05-05 01:33 40.63482 -73.77259 15 ft 17 kts 298°
2026-05-05 01:33 40.63551 -73.77407 17 ft 20 kts 301°
2026-05-05 01:33 40.63620 -73.77562 16 ft 12 kts 303°
2026-05-05 01:34 40.63637 -73.77613 15 ft 2 kts 244°
2026-05-05 01:34 40.63616 -73.77625 15 ft 5 kts 205°
2026-05-05 01:34 40.63573 -73.77655 15 ft 9 kts 211°
2026-05-05 01:34 40.63511 -73.77704 17 ft 12 kts 210°
2026-05-05 01:35 40.63431 -73.77765 16 ft 15 kts 210°
2026-05-05 01:35 40.63347 -73.77850 16 ft 15 kts 241°
2026-05-05 01:35 40.63323 -73.77994 16 ft 18 kts 261°
2026-05-05 01:35 40.63368 -73.78151 16 ft 20 kts 298°
2026-05-05 01:36 40.63446 -73.78321 16 ft 23 kts 301°
2026-05-05 01:36 40.63535 -73.78518 17 ft 26 kts 301°
2026-05-05 01:36 40.63634 -73.78740 17 ft 29 kts 300°
2026-05-05 01:36 40.63742 -73.78977 16 ft 30 kts 301°
2026-05-05 01:37 40.63846 -73.79209 16 ft 29 kts 300°
2026-05-05 01:37 40.63941 -73.79421 16 ft 24 kts 303°
2026-05-05 01:37 40.64046 -73.79579 16 ft 23 kts 333°
2026-05-05 01:37 40.64196 -73.79609 15 ft 22 kts
2026-05-05 01:38 40.64347 -73.79594 15 ft 21 kts
2026-05-05 01:38 40.64491 -73.79598 15 ft 17 kts 354°
2026-05-05 01:38 40.64563 -73.79604 15 ft 4 kts 22°
2026-05-05 01:38 40.64583 -73.79579 15 ft 4 kts 54°
2026-05-05 01:39 40.64599 -73.79546 15 ft 4 kts 60°
2026-05-05 01:39 40.64613 -73.79513 15 ft 4 kts 67°
2026-05-05 01:39 40.64615 -73.79476 15 ft 4 kts 92°
2026-05-05 01:39 40.64613 -73.79439 15 ft 4 kts 89°
2026-05-05 01:40 40.64613 -73.79401 15 ft 4 kts 89°
2026-05-05 01:40 40.64614 -73.79365 15 ft 4 kts 96°
2026-05-05 01:40 40.64605 -73.79320 15 ft 6 kts 99°
2026-05-05 01:40 40.64609 -73.79261 15 ft 7 kts 69°
2026-05-05 01:41 40.64653 -73.79231 15 ft 8 kts
2026-05-05 01:41 40.64698 -73.79245 15 ft 0 kts 345°
2026-05-05 01:41 40.64701 -73.79246 15 ft 0 kts 345°